Torna al catalogo

STARLINK-4135

AttivoComunicazioniVLEO
NORAD 53248·PAYLOAD·🇺🇸 United States

Lanciato Jul 24, 2022 da Cape Canaveral Space Force Station

Loading…

Prossimi Passaggi (prossime 24 ore)

TLE

AggiornatoSource: CelesTrak SupGP

Epoca: Sep 14, 2026, 21:05 UTC

1 53248C 22086G   26257.87895833  .00031168  00000+0  10024-2 0  2577
2 53248  53.1587  60.0073 0001078  83.7136 316.3901 15.31682532    13

Traccia STARLINK-4135 in tempo reale con AllMySat

Download on the App Store